Location: Unspecified
(41.1850°N, 73.2650°W)
Time: 03:28:49
(UTC+00:00)

SL-08 R/B - Pass Details

Date: 21 March 2026
Orbit: 946 x 992 km, 83.0° (Epoch: 13 April)

Event Time Altitude Azimuth Distance (km) Brightness Sun altitude
Rises 23:44:49 0° 148° (SSE) 3,608 7.1 -8.0°
Reaches altitude 10° 23:47:47 10° 135° (SE) 2,663 6.3 -8.6°
Maximum altitude 23:52:26 24° 84° (E) 1,873 5.4 -9.4°
Drops below altitude 10° 23:57:05 10° 34° (NE) 2,673 6.6 -10.3°
Sets 00:00:03 0° 21° (NNE) 3,625 7.4 -10.9°
